Starlink 5505

decayed
NORAD ID: 57259 Int'l Des: 2023-094 Owner: SPXS Country: US Constellation: starlink
LEOCIRCULAR

关于 Starlink 5505

正在加载描述...

高度历史

Altitude vs Time

uPlot chart will show altitude changes over time

两行轨道根数

1 57259U 23094AT 24061.13830567 .03349843 90977-5 52770-3 0 9997
2 57259 42.9758 319.2250 0013112 240.7276 249.3591 16.32557547 37629
Epoch: Mar 1, 2024 • Age: 17853 hours

当前状态

Position data unavailable
发射日期 Jul 7, 2023
运行时间 2.6 years
衰减日期 Mar 2, 2024
类型 internet

技术详情

分类 Payload
质量 305.00 kg
干质量 290.00 kg
总质量 305.00 kg
长度 0.20 m
直径 2.80 m
跨度 9.00 m
形状 Box + pan
制造商 SPXS
平台类型 Starlink
阶段状态 Reentered
所有者/国家 SPXS/US

大型星座

Loading constellations...